Time,TemperatureF,DewpointF,PressureIn,WindDirection,WindDirectionDegrees,WindSpeedMPH,WindSpeedGustMPH,Humidity,HourlyPrecipIn,Conditions,Clouds,dailyrainin,SoftwareType,DateUTC
2013-05-04 00:02:00,47.9,25.2,30.02,South,180,1.1,1.1,41,0.00,,,0.00,WUHU216HW,2013-05-04 04:02:00,
2013-05-04 00:07:00,47.9,25.2,30.02,South,180,0.0,2.2,41,0.00,,,0.00,WUHU216HW,2013-05-04 04:07:00,
2013-05-04 00:12:00,47.9,25.2,30.02,SE,135,0.0,2.2,41,0.00,,,0.00,WUHU216HW,2013-05-04 04:12:00,
2013-05-04 00:17:00,47.9,25.2,30.00,SE,135,1.1,1.1,41,0.00,,,0.00,WUHU216HW,2013-05-04 04:17:00,
2013-05-04 00:22:00,47.9,25.2,30.01,WSW,248,1.1,1.6,41,0.00,,,0.00,WUHU216HW,2013-05-04 04:22:00,
2013-05-04 00:27:00,47.9,25.2,30.01,SW,225,2.2,3.1,41,0.00,,,0.00,WUHU216HW,2013-05-04 04:27:00,
2013-05-04 00:32:00,47.9,25.2,30.01,SSE,158,0.9,3.1,41,0.00,,,0.00,WUHU216HW,2013-05-04 04:32:00,
2013-05-04 00:37:00,47.9,25.2,30.01,SE,135,0.7,1.8,41,0.00,,,0.00,WUHU216HW,2013-05-04 04:37:00,
2013-05-04 00:42:00,47.9,25.2,30.01,SE,135,1.3,1.8,41,0.00,,,0.00,WUHU216HW,2013-05-04 04:42:00,
2013-05-04 00:47:00,47.9,25.2,30.01,SW,225,0.4,1.6,41,0.00,,,0.00,WUHU216HW,2013-05-04 04:47:00,
2013-05-04 00:52:00,47.9,25.2,30.00,SE,135,2.5,2.5,41,0.00,,,0.00,WUHU216HW,2013-05-04 04:52:00,
2013-05-04 00:57:00,47.7,25.1,30.01,WSW,248,0.9,2.5,41,0.00,,,0.00,WUHU216HW,2013-05-04 04:57:00,
2013-05-04 01:02:00,47.7,25.1,30.01,SE,135,0.4,2.0,41,0.00,,,0.00,WUHU216HW,2013-05-04 05:02:00,
2013-05-04 01:07:00,47.7,25.1,30.01,SSW,203,0.7,2.0,41,0.00,,,0.00,WUHU216HW,2013-05-04 05:07:00,
2013-05-04 01:12:00,47.5,24.9,30.01,SW,225,0.9,1.1,41,0.00,,,0.00,WUHU216HW,2013-05-04 05:12:00,
2013-05-04 01:17:00,47.5,24.9,30.01,South,180,2.2,2.2,41,0.00,,,0.00,WUHU216HW,2013-05-04 05:17:00,
2013-05-04 01:22:00,47.3,24.8,30.00,SE,135,3.8,3.8,41,0.00,,,0.00,WUHU216HW,2013-05-04 05:22:00,
2013-05-04 01:27:00,47.2,24.6,30.00,South,180,0.4,3.8,41,0.00,,,0.00,WUHU216HW,2013-05-04 05:27:00,
2013-05-04 01:32:00,47.2,24.6,30.00,SSW,203,1.1,1.3,41,0.00,,,0.00,WUHU216HW,2013-05-04 05:32:00,
2013-05-04 01:37:00,47.0,24.4,29.99,ESE,113,0.9,4.7,41,0.00,,,0.00,WUHU216HW,2013-05-04 05:37:00,
2013-05-04 01:42:00,47.0,24.4,30.00,SW,225,0.4,4.7,41,0.00,,,0.00,WUHU216HW,2013-05-04 05:42:00,
2013-05-04 01:47:00,46.8,24.3,29.99,South,180,0.7,1.8,41,0.00,,,0.00,WUHU216HW,2013-05-04 05:47:00,
2013-05-04 01:52:00,46.8,24.3,30.00,ESE,113,0.7,1.1,41,0.00,,,0.00,WUHU216HW,2013-05-04 05:52:00,
2013-05-04 01:57:00,46.6,24.1,29.99,South,180,1.3,2.2,41,0.00,,,0.00,WUHU216HW,2013-05-04 05:57:00,
2013-05-04 02:02:00,46.6,23.6,29.99,WNW,293,1.1,2.2,40,0.00,,,0.00,WUHU216HW,2013-05-04 06:02:00,
2013-05-04 02:07:00,46.4,23.4,29.99,ESE,113,0.4,1.8,40,0.00,,,0.00,WUHU216HW,2013-05-04 06:07:00,
2013-05-04 02:12:00,46.4,23.4,29.99,SSE,158,0.4,1.8,40,0.00,,,0.00,WUHU216HW,2013-05-04 06:12:00,
2013-05-04 02:17:00,46.3,23.2,29.98,West,270,0.0,1.6,40,0.00,,,0.00,WUHU216HW,2013-05-04 06:17:00,
2013-05-04 02:22:00,46.3,23.2,29.99,South,180,1.8,1.8,40,0.00,,,0.00,WUHU216HW,2013-05-04 06:22:00,
2013-05-04 02:27:00,46.3,23.2,29.98,WNW,293,0.4,1.8,40,0.00,,,0.00,WUHU216HW,2013-05-04 06:27:00,
2013-05-04 02:32:00,46.1,23.0,29.98,SE,135,0.2,2.5,40,0.00,,,0.00,WUHU216HW,2013-05-04 06:32:00,
2013-05-04 02:37:00,45.9,23.0,29.98,ESE,113,1.1,2.5,40,0.00,,,0.00,WUHU216HW,2013-05-04 06:37:00,
2013-05-04 02:42:00,45.7,22.8,29.97,WNW,293,0.9,1.1,40,0.00,,,0.00,WUHU216HW,2013-05-04 06:42:00,
2013-05-04 02:47:00,45.7,22.8,29.98,SE,135,1.1,1.1,40,0.00,,,0.00,WUHU216HW,2013-05-04 06:47:00,
2013-05-04 02:52:00,45.7,22.8,29.98,SE,135,1.8,2.0,40,0.00,,,0.00,WUHU216HW,2013-05-04 06:52:00,
2013-05-04 02:57:00,45.7,22.8,29.98,SW,225,0.4,2.0,40,0.00,,,0.00,WUHU216HW,2013-05-04 06:57:00,
2013-05-04 03:02:00,45.5,22.6,29.97,SE,135,0.4,1.1,40,0.00,,,0.00,WUHU216HW,2013-05-04 07:02:00,
2013-05-04 03:07:00,45.4,22.4,29.97,SW,225,0.9,1.1,40,0.00,,,0.00,WUHU216HW,2013-05-04 07:07:00,
2013-05-04 03:12:00,45.2,22.2,29.97,South,180,0.7,1.1,40,0.00,,,0.00,WUHU216HW,2013-05-04 07:12:00,
2013-05-04 03:17:00,45.0,22.2,29.97,SW,225,0.4,1.1,40,0.00,,,0.00,WUHU216HW,2013-05-04 07:17:00,
2013-05-04 03:22:00,45.0,22.2,29.97,SSW,203,1.1,1.1,40,0.00,,,0.00,WUHU216HW,2013-05-04 07:22:00,
2013-05-04 03:27:00,45.0,21.4,29.97,SE,135,0.4,1.1,39,0.00,,,0.00,WUHU216HW,2013-05-04 07:27:00,
2013-05-04 03:32:00,44.8,21.2,29.96,SSE,158,1.1,1.3,39,0.00,,,0.00,WUHU216HW,2013-05-04 07:32:00,
2013-05-04 03:37:00,44.8,21.2,29.97,ESE,113,1.1,1.3,39,0.00,,,0.00,WUHU216HW,2013-05-04 07:37:00,
2013-05-04 03:42:00,44.8,21.2,29.97,SSW,203,0.9,1.1,39,0.00,,,0.00,WUHU216HW,2013-05-04 07:42:00,
2013-05-04 03:47:00,44.8,21.2,29.97,WSW,248,0.4,1.1,39,0.00,,,0.00,WUHU216HW,2013-05-04 07:47:00,
2013-05-04 03:52:00,44.6,21.2,29.97,SSW,203,0.0,0.7,39,0.00,,,0.00,WUHU216HW,2013-05-04 07:52:00,
2013-05-04 03:57:00,44.6,21.2,29.97,SSE,158,0.4,0.7,39,0.00,,,0.00,WUHU216HW,2013-05-04 07:57:00,
2013-05-04 04:02:00,44.5,21.0,29.97,SW,225,0.2,0.9,39,0.00,,,0.00,WUHU216HW,2013-05-04 08:02:00,
2013-05-04 04:07:00,44.5,21.0,29.97,SW,225,0.4,0.9,39,0.00,,,0.00,WUHU216HW,2013-05-04 08:07:00,
2013-05-04 04:12:00,44.3,20.8,29.97,SSW,203,0.0,1.1,39,0.00,,,0.00,WUHU216HW,2013-05-04 08:12:00,
2013-05-04 04:17:00,44.3,20.8,29.96,SSW,203,0.7,1.1,39,0.00,,,0.00,WUHU216HW,2013-05-04 08:17:00,
2013-05-04 04:22:00,44.3,20.8,29.96,ESE,113,0.4,1.1,39,0.00,,,0.00,WUHU216HW,2013-05-04 08:22:00,
2013-05-04 04:27:00,44.3,20.8,29.97,SSE,158,0.0,0.9,39,0.00,,,0.00,WUHU216HW,2013-05-04 08:27:00,
2013-05-04 04:32:00,44.1,20.6,29.96,SW,225,0.7,1.6,39,0.00,,,0.00,WUHU216HW,2013-05-04 08:32:00,
2013-05-04 04:37:00,44.1,20.0,29.96,South,180,0.4,1.6,38,0.00,,,0.00,WUHU216HW,2013-05-04 08:37:00,
2013-05-04 04:42:00,43.9,19.8,29.97,SW,225,0.9,0.9,38,0.00,,,0.00,WUHU216HW,2013-05-04 08:42:00,
2013-05-04 04:47:00,43.9,19.8,29.97,SSE,158,0.4,0.9,38,0.00,,,0.00,WUHU216HW,2013-05-04 08:47:00,
2013-05-04 04:52:00,43.7,19.6,29.97,SSW,203,0.7,0.9,38,0.00,,,0.00,WUHU216HW,2013-05-04 08:52:00,
2013-05-04 04:57:00,43.6,19.4,29.97,SSW,203,0.4,0.9,38,0.00,,,0.00,WUHU216HW,2013-05-04 08:57:00,
2013-05-04 05:02:00,43.6,18.8,29.96,WSW,248,0.7,2.5,37,0.00,,,0.00,WUHU216HW,2013-05-04 09:02:00,
2013-05-04 05:07:00,43.4,18.6,29.97,WSW,248,0.2,2.5,37,0.00,,,0.00,WUHU216HW,2013-05-04 09:07:00,
2013-05-04 05:12:00,43.4,18.6,29.97,South,180,1.1,2.0,37,0.00,,,0.00,WUHU216HW,2013-05-04 09:12:00,
2013-05-04 05:17:00,43.2,18.5,29.97,South,180,0.4,2.0,37,0.00,,,0.00,WUHU216HW,2013-05-04 09:17:00,
2013-05-04 05:22:00,43.0,18.4,29.97,South,180,0.4,1.1,37,0.00,,,0.00,WUHU216HW,2013-05-04 09:22:00,
2013-05-04 05:27:00,42.8,17.5,29.96,SSW,203,0.2,1.1,36,0.00,,,0.00,WUHU216HW,2013-05-04 09:27:00,
2013-05-04 05:32:00,42.8,17.5,29.97,West,270,0.7,1.1,36,0.00,,,0.00,WUHU216HW,2013-05-04 09:32:00,
2013-05-04 05:37:00,42.7,17.4,29.97,NNW,338,0.0,1.1,36,0.00,,,0.00,WUHU216HW,2013-05-04 09:37:00,
2013-05-04 05:42:00,42.5,17.2,29.96,West,270,0.4,0.9,36,0.00,,,0.00,WUHU216HW,2013-05-04 09:42:00,
2013-05-04 05:47:00,42.5,17.2,29.97,SE,135,0.2,1.6,36,0.00,,,0.00,WUHU216HW,2013-05-04 09:47:00,
2013-05-04 05:52:00,42.3,17.7,29.96,SE,135,0.9,1.6,37,0.00,,,0.00,WUHU216HW,2013-05-04 09:52:00,
2013-05-04 05:57:00,42.3,17.0,29.97,WSW,248,0.9,1.1,36,0.00,,,0.00,WUHU216HW,2013-05-04 09:57:00,
2013-05-04 06:02:00,42.1,16.9,29.96,SSE,158,0.7,1.3,36,0.00,,,0.00,WUHU216HW,2013-05-04 10:02:00,
2013-05-04 06:07:00,42.1,17.6,29.97,SE,135,1.1,1.3,37,0.00,,,0.00,WUHU216HW,2013-05-04 10:07:00,
2013-05-04 06:12:00,42.1,17.6,29.96,WSW,248,0.4,1.3,37,0.00,,,0.00,WUHU216HW,2013-05-04 10:12:00,
2013-05-04 06:17:00,42.1,17.6,29.96,WSW,248,0.2,1.3,37,0.00,,,0.00,WUHU216HW,2013-05-04 10:17:00,
2013-05-04 06:22:00,42.1,17.6,29.96,SE,135,2.5,2.5,37,0.00,,,0.00,WUHU216HW,2013-05-04 10:22:00,
2013-05-04 06:27:00,42.3,17.7,29.95,WNW,293,1.1,2.5,37,0.00,,,0.00,WUHU216HW,2013-05-04 10:27:00,
2013-05-04 06:32:00,42.3,17.7,29.95,SW,225,0.4,1.1,37,0.00,,,0.00,WUHU216HW,2013-05-04 10:32:00,
2013-05-04 06:37:00,42.3,18.4,29.96,WSW,248,0.4,1.1,38,0.00,,,0.00,WUHU216HW,2013-05-04 10:37:00,
2013-05-04 06:42:00,42.3,18.4,29.97,SW,225,0.2,1.3,38,0.00,,,0.00,WUHU216HW,2013-05-04 10:42:00,
2013-05-04 06:47:00,42.3,18.4,29.97,SW,225,0.7,1.3,38,0.00,,,0.00,WUHU216HW,2013-05-04 10:47:00,
2013-05-04 06:52:00,42.3,18.4,29.98,South,180,0.4,1.1,38,0.00,,,0.00,WUHU216HW,2013-05-04 10:52:00,
2013-05-04 06:57:00,42.1,18.2,29.97,SSW,203,0.7,1.1,38,0.00,,,0.00,WUHU216HW,2013-05-04 10:57:00,
2013-05-04 07:02:00,42.1,18.8,29.97,West,270,0.0,1.1,39,0.00,,,0.00,WUHU216HW,2013-05-04 11:02:00,
2013-05-04 07:07:00,42.1,18.8,29.97,WSW,248,1.1,1.3,39,0.00,,,0.00,WUHU216HW,2013-05-04 11:07:00,
2013-05-04 07:12:00,42.1,18.8,29.97,SSE,158,1.1,1.3,39,0.00,,,0.00,WUHU216HW,2013-05-04 11:12:00,
2013-05-04 07:17:00,41.9,18.7,29.97,SE,135,1.1,1.1,39,0.00,,,0.00,WUHU216HW,2013-05-04 11:17:00,
2013-05-04 07:22:00,41.9,18.7,29.97,SSW,203,0.7,1.1,39,0.00,,,0.00,WUHU216HW,2013-05-04 11:22:00,
2013-05-04 07:27:00,41.8,18.6,29.97,WNW,293,0.4,1.1,39,0.00,,,0.00,WUHU216HW,2013-05-04 11:27:00,
2013-05-04 07:32:00,41.8,18.6,29.97,SSW,203,1.1,1.6,39,0.00,,,0.00,WUHU216HW,2013-05-04 11:32:00,
2013-05-04 07:37:00,41.8,18.6,29.97,SSW,203,0.2,1.8,39,0.00,,,0.00,WUHU216HW,2013-05-04 11:37:00,
2013-05-04 07:42:00,41.8,18.6,29.97,WSW,248,0.4,1.8,39,0.00,,,0.00,WUHU216HW,2013-05-04 11:42:00,
2013-05-04 07:47:00,41.8,19.2,29.97,South,180,0.4,0.9,40,0.00,,,0.00,WUHU216HW,2013-05-04 11:47:00,
2013-05-04 07:52:00,41.8,19.2,29.98,SSE,158,0.7,0.7,40,0.00,,,0.00,WUHU216HW,2013-05-04 11:52:00,
2013-05-04 07:57:00,41.8,19.2,29.97,SSE,158,0.7,1.1,40,0.00,,,0.00,WUHU216HW,2013-05-04 11:57:00,
2013-05-04 08:02:00,41.8,19.2,29.97,NNW,338,0.4,1.3,40,0.00,,,0.00,WUHU216HW,2013-05-04 12:02:00,
2013-05-04 08:07:00,41.8,19.2,29.97,West,270,0.2,1.3,40,0.00,,,0.00,WUHU216HW,2013-05-04 12:07:00,
2013-05-04 08:12:00,41.9,19.4,29.97,WNW,293,0.4,0.9,40,0.00,,,0.00,WUHU216HW,2013-05-04 12:12:00,
2013-05-04 08:17:00,41.9,19.4,29.98,SSE,158,0.7,2.5,40,0.00,,,0.00,WUHU216HW,2013-05-04 12:17:00,
2013-05-04 08:23:00,42.1,19.5,29.97,WSW,248,0.4,2.5,40,0.00,,,0.00,WUHU216HW,2013-05-04 12:23:00,
2013-05-04 08:28:00,42.1,19.5,29.97,SSW,203,0.9,2.0,40,0.00,,,0.00,WUHU216HW,2013-05-04 12:28:00,
2013-05-04 08:33:00,42.1,19.5,29.97,SW,225,0.4,1.1,40,0.00,,,0.00,WUHU216HW,2013-05-04 12:33:00,
2013-05-04 08:38:00,42.1,19.5,29.97,SE,135,0.7,1.8,40,0.00,,,0.00,WUHU216HW,2013-05-04 12:38:00,
2013-05-04 08:43:00,42.1,19.5,29.96,SE,135,0.4,1.8,40,0.00,,,0.00,WUHU216HW,2013-05-04 12:43:00,
2013-05-04 08:48:00,42.3,19.7,29.97,SSW,203,1.1,1.1,40,0.00,,,0.00,WUHU216HW,2013-05-04 12:48:00,
2013-05-04 08:53:00,42.3,19.7,29.97,WSW,248,0.0,1.6,40,0.00,,,0.00,WUHU216HW,2013-05-04 12:53:00,
2013-05-04 08:58:00,42.3,19.7,29.96,SSW,203,0.4,1.6,40,0.00,,,0.00,WUHU216HW,2013-05-04 12:58:00,
2013-05-04 09:03:00,42.3,19.7,29.97,West,270,0.7,1.6,40,0.00,,,0.00,WUHU216HW,2013-05-04 13:03:00,
2013-05-04 09:08:00,42.3,20.3,29.98,WSW,248,0.4,1.8,41,0.00,,,0.00,WUHU216HW,2013-05-04 13:08:00,
2013-05-04 09:13:00,42.3,20.3,29.97,SSW,203,2.0,2.0,41,0.00,,,0.00,WUHU216HW,2013-05-04 13:13:00,
2013-05-04 09:18:00,42.5,20.3,29.97,South,180,0.9,2.0,41,0.00,,,0.00,WUHU216HW,2013-05-04 13:18:00,
2013-05-04 09:23:00,42.5,20.3,29.96,SE,135,0.0,2.9,41,0.00,,,0.00,WUHU216HW,2013-05-04 13:23:00,
2013-05-04 09:28:00,42.5,20.3,29.96,SSE,158,0.7,2.9,41,0.00,,,0.00,WUHU216HW,2013-05-04 13:28:00,
2013-05-04 09:33:00,42.5,20.3,29.97,SSE,158,0.7,1.8,41,0.00,,,0.00,WUHU216HW,2013-05-04 13:33:00,
2013-05-04 09:38:00,42.7,20.5,29.97,WSW,248,0.7,1.8,41,0.00,,,0.00,WUHU216HW,2013-05-04 13:38:00,
2013-05-04 09:43:00,42.8,20.7,29.97,WSW,248,0.9,1.6,41,0.00,,,0.00,WUHU216HW,2013-05-04 13:43:00,
2013-05-04 09:48:00,42.8,20.7,29.96,SE,135,0.4,1.6,41,0.00,,,0.00,WUHU216HW,2013-05-04 13:48:00,
2013-05-04 09:53:00,42.8,20.7,29.96,SSW,203,0.4,1.1,41,0.00,,,0.00,WUHU216HW,2013-05-04 13:53:00,
2013-05-04 09:58:00,43.0,20.9,29.97,ESE,113,0.7,1.1,41,0.00,,,0.00,WUHU216HW,2013-05-04 13:58:00,
2013-05-04 10:03:00,43.2,21.1,29.96,SE,135,1.1,1.6,41,0.00,,,0.00,WUHU216HW,2013-05-04 14:03:00,
2013-05-04 10:08:00,43.2,21.1,29.97,SW,225,0.4,1.6,41,0.00,,,0.00,WUHU216HW,2013-05-04 14:08:00,
2013-05-04 10:13:00,43.4,21.2,29.96,WSW,248,1.1,1.3,41,0.00,,,0.00,WUHU216HW,2013-05-04 14:13:00,
2013-05-04 10:18:00,43.4,21.2,29.96,South,180,1.6,1.6,41,0.00,,,0.00,WUHU216HW,2013-05-04 14:18:00,
2013-05-04 10:23:00,43.4,21.7,29.95,SE,135,0.9,1.6,42,0.00,,,0.00,WUHU216HW,2013-05-04 14:23:00,
2013-05-04 10:28:00,43.4,21.2,29.97,SE,135,2.2,2.2,41,0.00,,,0.00,WUHU216HW,2013-05-04 14:28:00,
2013-05-04 10:33:00,43.4,21.2,29.97,ESE,113,0.2,2.2,41,0.00,,,0.00,WUHU216HW,2013-05-04 14:33:00,
2013-05-04 10:38:00,43.4,21.2,29.96,ESE,113,1.1,1.3,41,0.00,,,0.00,WUHU216HW,2013-05-04 14:38:00,
2013-05-04 10:43:00,43.6,21.3,29.97,SE,135,1.1,1.3,41,0.00,,,0.00,WUHU216HW,2013-05-04 14:43:00,
2013-05-04 10:48:00,43.6,21.3,29.98,SSE,158,0.4,1.1,41,0.00,,,0.00,WUHU216HW,2013-05-04 14:48:00,
2013-05-04 10:53:00,43.6,21.3,29.96,SE,135,0.7,0.9,41,0.00,,,0.00,WUHU216HW,2013-05-04 14:53:00,
2013-05-04 10:58:00,43.6,21.9,29.98,SSE,158,0.4,2.5,42,0.00,,,0.00,WUHU216HW,2013-05-04 14:58:00,
2013-05-04 11:03:00,43.7,22.1,29.97,ESE,113,1.1,2.5,42,0.00,,,0.00,WUHU216HW,2013-05-04 15:03:00,
2013-05-04 11:08:00,43.9,22.2,29.97,SSW,203,0.0,1.1,42,0.00,,,0.00,WUHU216HW,2013-05-04 15:08:00,
2013-05-04 11:13:00,44.1,22.4,29.97,SSW,203,1.1,1.8,42,0.00,,,0.00,WUHU216HW,2013-05-04 15:13:00,
2013-05-04 11:18:00,44.3,22.5,29.96,ESE,113,0.4,1.8,42,0.00,,,0.00,WUHU216HW,2013-05-04 15:18:00,
2013-05-04 11:23:00,44.5,22.7,29.97,SW,225,0.7,1.8,42,0.00,,,0.00,WUHU216HW,2013-05-04 15:23:00,
2013-05-04 11:28:00,44.5,22.7,29.96,South,180,0.9,1.1,42,0.00,,,0.00,WUHU216HW,2013-05-04 15:28:00,
2013-05-04 11:33:00,44.6,22.9,29.97,SE,135,2.5,2.5,42,0.00,,,0.00,WUHU216HW,2013-05-04 15:33:00,
2013-05-04 11:38:00,44.8,23.1,29.97,SSE,158,0.9,2.5,42,0.00,,,0.00,WUHU216HW,2013-05-04 15:38:00,
2013-05-04 11:43:00,45.0,23.2,29.96,West,270,0.4,1.8,42,0.00,,,0.00,WUHU216HW,2013-05-04 15:43:00,
2013-05-04 11:48:00,45.0,23.2,29.97,ESE,113,2.0,2.0,42,0.00,,,0.00,WUHU216HW,2013-05-04 15:48:00,
2013-05-04 11:53:00,45.0,23.2,29.96,WSW,248,0.0,2.0,42,0.00,,,0.00,WUHU216HW,2013-05-04 15:53:00,
2013-05-04 11:58:00,45.0,23.2,29.96,SE,135,0.0,1.1,42,0.00,,,0.00,WUHU216HW,2013-05-04 15:58:00,
2013-05-04 12:03:00,45.2,23.3,29.95,SW,225,1.1,1.1,42,0.00,,,0.00,WUHU216HW,2013-05-04 16:03:00,
2013-05-04 12:08:00,45.2,23.3,29.94,ESE,113,2.0,2.0,42,0.00,,,0.00,WUHU216HW,2013-05-04 16:08:00,
2013-05-04 12:13:00,45.2,23.3,29.95,SSW,203,0.2,2.0,42,0.00,,,0.00,WUHU216HW,2013-05-04 16:13:00,
2013-05-04 12:18:00,45.4,23.5,29.95,West,270,0.4,1.8,42,0.00,,,0.00,WUHU216HW,2013-05-04 16:18:00,
2013-05-04 12:23:00,45.2,23.3,29.95,South,180,0.9,2.0,42,0.00,,,0.00,WUHU216HW,2013-05-04 16:23:00,
2013-05-04 12:28:00,45.2,23.3,29.95,SSE,158,0.4,2.0,42,0.00,,,0.00,WUHU216HW,2013-05-04 16:28:00,
2013-05-04 12:33:00,45.4,23.5,29.95,SW,225,1.1,1.8,42,0.00,,,0.00,WUHU216HW,2013-05-04 16:33:00,
2013-05-04 12:38:00,45.4,23.5,29.95,SSW,203,0.9,1.8,42,0.00,,,0.00,WUHU216HW,2013-05-04 16:38:00,
2013-05-04 12:43:00,45.5,23.7,29.95,SSW,203,0.7,1.8,42,0.00,,,0.00,WUHU216HW,2013-05-04 16:43:00,
2013-05-04 12:48:00,45.7,23.9,29.95,SSE,158,0.7,1.8,42,0.00,,,0.00,WUHU216HW,2013-05-04 16:48:00,
2013-05-04 12:53:00,45.7,23.9,29.96,SSE,158,0.4,1.1,42,0.00,,,0.00,WUHU216HW,2013-05-04 16:53:00,
2013-05-04 12:58:00,45.7,23.9,29.95,SW,225,0.4,1.1,42,0.00,,,0.00,WUHU216HW,2013-05-04 16:58:00,
2013-05-04 13:03:00,45.7,23.9,29.96,West,270,0.7,1.1,42,0.00,,,0.00,WUHU216HW,2013-05-04 17:03:00,
2013-05-04 13:08:00,45.7,23.9,29.96,SE,135,0.4,1.1,42,0.00,,,0.00,WUHU216HW,2013-05-04 17:08:00,
2013-05-04 13:13:00,45.7,23.9,29.94,WNW,293,0.2,1.3,42,0.00,,,0.00,WUHU216HW,2013-05-04 17:13:00,
2013-05-04 13:18:00,45.7,23.9,29.96,SSW,203,0.0,1.3,42,0.00,,,0.00,WUHU216HW,2013-05-04 17:18:00,
2013-05-04 13:23:00,45.7,23.9,29.94,WSW,248,0.4,0.7,42,0.00,,,0.00,WUHU216HW,2013-05-04 17:23:00,
2013-05-04 13:28:00,45.7,23.9,29.95,SSE,158,0.9,1.8,42,0.00,,,0.00,WUHU216HW,2013-05-04 17:28:00,
2013-05-04 13:33:00,45.7,23.9,29.94,SSW,203,0.0,2.5,42,0.00,,,0.00,WUHU216HW,2013-05-04 17:33:00,
2013-05-04 13:38:00,45.7,23.9,29.94,SSE,158,1.1,2.5,42,0.00,,,0.00,WUHU216HW,2013-05-04 17:38:00,
2013-05-04 13:43:00,45.7,23.3,29.94,WSW,248,0.4,1.8,41,0.00,,,0.00,WUHU216HW,2013-05-04 17:43:00,
2013-05-04 13:48:00,45.7,23.9,29.94,West,270,0.4,1.8,42,0.00,,,0.00,WUHU216HW,2013-05-04 17:48:00,
2013-05-04 13:53:00,45.7,23.9,29.94,SSE,158,0.4,2.0,42,0.00,,,0.00,WUHU216HW,2013-05-04 17:53:00,
2013-05-04 13:58:00,45.5,23.1,29.94,SSE,158,0.4,2.0,41,0.00,,,0.00,WUHU216HW,2013-05-04 17:58:00,
2013-05-04 14:03:00,45.5,23.7,29.94,ESE,113,0.4,2.0,42,0.00,,,0.00,WUHU216HW,2013-05-04 18:03:00,
2013-05-04 14:08:00,45.5,23.7,29.94,NW,315,1.8,1.8,42,0.00,,,0.00,WUHU216HW,2013-05-04 18:08:00,
2013-05-04 14:13:00,45.5,23.1,29.93,SW,225,0.4,1.8,41,0.00,,,0.00,WUHU216HW,2013-05-04 18:13:00,
2013-05-04 14:18:00,45.5,23.1,29.94,South,180,1.1,1.6,41,0.00,,,0.00,WUHU216HW,2013-05-04 18:18:00,
2013-05-04 14:23:00,45.5,23.1,29.93,ESE,113,2.2,2.2,41,0.00,,,0.00,WUHU216HW,2013-05-04 18:23:00,
2013-05-04 14:28:00,45.7,23.3,29.92,SE,135,1.1,2.2,41,0.00,,,0.00,WUHU216HW,2013-05-04 18:28:00,
2013-05-04 14:33:00,45.7,23.3,29.92,SSW,203,0.4,1.3,41,0.01,,,0.01,WUHU216HW,2013-05-04 18:33:00,
2013-05-04 14:38:00,45.7,23.3,29.92,SSW,203,0.4,1.8,41,0.01,,,0.01,WUHU216HW,2013-05-04 18:38:00,
2013-05-04 14:43:00,45.7,23.3,29.93,SSW,203,1.1,1.8,41,0.02,,,0.02,WUHU216HW,2013-05-04 18:43:00,
2013-05-04 14:48:00,45.7,23.3,29.92,SW,225,0.4,1.6,41,0.02,,,0.02,WUHU216HW,2013-05-04 18:48:00,
2013-05-04 14:53:00,45.7,23.3,29.92,SSW,203,0.7,1.3,41,0.02,,,0.02,WUHU216HW,2013-05-04 18:53:00,
2013-05-04 14:58:00,45.7,23.3,29.92,WSW,248,0.2,1.3,41,0.02,,,0.02,WUHU216HW,2013-05-04 18:58:00,
2013-05-04 15:03:00,45.7,23.3,29.92,WNW,293,1.1,1.6,41,0.02,,,0.02,WUHU216HW,2013-05-04 19:03:00,
2013-05-04 15:08:00,45.7,23.3,29.92,ESE,113,0.7,1.6,41,0.02,,,0.02,WUHU216HW,2013-05-04 19:08:00,
2013-05-04 15:13:00,45.7,23.3,29.92,SE,135,0.7,1.3,41,0.02,,,0.02,WUHU216HW,2013-05-04 19:13:00,
2013-05-04 15:18:00,45.7,23.3,29.91,SSE,158,1.3,1.8,41,0.02,,,0.02,WUHU216HW,2013-05-04 19:18:00,
2013-05-04 15:23:00,45.5,23.1,29.88,ESE,113,1.8,1.8,41,0.02,,,0.02,WUHU216HW,2013-05-04 19:23:00,
2013-05-04 15:28:00,45.5,23.1,29.87,East,90,0.7,1.8,41,0.01,,,0.02,WUHU216HW,2013-05-04 19:28:00,
2013-05-04 15:33:00,45.5,23.1,29.87,ESE,113,0.7,1.8,41,0.01,,,0.02,WUHU216HW,2013-05-04 19:33:00,
2013-05-04 15:38:00,45.5,23.1,29.87,SSW,203,1.1,1.8,41,0.01,,,0.02,WUHU216HW,2013-05-04 19:38:00,
2013-05-04 15:43:00,45.5,23.1,29.88,SW,225,0.7,1.1,41,0.00,,,0.02,WUHU216HW,2013-05-04 19:43:00,
2013-05-04 15:48:00,45.5,23.1,29.92,South,180,0.4,1.1,41,0.00,,,0.02,WUHU216HW,2013-05-04 19:48:00,
2013-05-04 15:53:00,45.4,23.0,29.92,WSW,248,0.9,0.9,41,0.00,,,0.02,WUHU216HW,2013-05-04 19:53:00,
2013-05-04 15:58:00,45.4,23.0,29.92,West,270,0.4,1.1,41,0.01,,,0.02,WUHU216HW,2013-05-04 19:58:00,
2013-05-04 16:03:00,45.4,23.0,29.92,SW,225,2.0,2.0,41,0.02,,,0.04,WUHU216HW,2013-05-04 20:03:00,
2013-05-04 16:08:00,45.4,23.0,29.92,WSW,248,0.2,2.0,41,0.02,,,0.04,WUHU216HW,2013-05-04 20:08:00,
2013-05-04 16:13:00,45.4,23.0,29.92,WSW,248,1.1,1.1,41,0.02,,,0.04,WUHU216HW,2013-05-04 20:13:00,
2013-05-04 16:18:00,45.4,23.0,29.91,WSW,248,1.1,1.1,41,0.02,,,0.04,WUHU216HW,2013-05-04 20:18:00,
2013-05-04 16:23:00,45.4,23.0,29.92,WSW,248,0.9,1.8,41,0.02,,,0.04,WUHU216HW,2013-05-04 20:23:00,
2013-05-04 16:28:00,45.4,23.0,29.90,SSW,203,1.1,1.8,41,0.02,,,0.04,WUHU216HW,2013-05-04 20:28:00,
2013-05-04 16:33:00,45.4,23.0,29.91,SE,135,0.9,1.3,41,0.03,,,0.05,WUHU216HW,2013-05-04 20:33:00,
2013-05-04 16:38:00,45.5,23.1,29.91,South,180,1.6,1.8,41,0.03,,,0.05,WUHU216HW,2013-05-04 20:38:00,
2013-05-04 16:43:00,45.7,23.3,29.90,SE,135,0.9,1.8,41,0.04,,,0.06,WUHU216HW,2013-05-04 20:43:00,
2013-05-04 16:48:00,45.7,23.3,29.89,WSW,248,1.1,1.3,41,0.04,,,0.06,WUHU216HW,2013-05-04 20:48:00,
2013-05-04 16:53:00,45.9,23.5,29.89,SE,135,0.4,1.3,41,0.04,,,0.06,WUHU216HW,2013-05-04 20:53:00,
2013-05-04 16:58:00,45.9,23.5,29.90,SSE,158,0.4,1.8,41,0.03,,,0.06,WUHU216HW,2013-05-04 20:58:00,
2013-05-04 17:03:00,45.9,24.0,29.89,SE,135,1.6,2.2,42,0.02,,,0.06,WUHU216HW,2013-05-04 21:03:00,
2013-05-04 17:08:00,46.1,24.1,29.89,SE,135,0.4,2.2,42,0.02,,,0.06,WUHU216HW,2013-05-04 21:08:00,
2013-05-04 17:13:00,46.1,23.6,29.89,ESE,113,0.7,1.3,41,0.02,,,0.06,WUHU216HW,2013-05-04 21:13:00,
2013-05-04 17:18:00,46.1,23.6,29.90,SSW,203,1.3,1.3,41,0.02,,,0.06,WUHU216HW,2013-05-04 21:18:00,
2013-05-04 17:23:00,45.9,24.0,29.90,SE,135,1.6,1.6,42,0.02,,,0.06,WUHU216HW,2013-05-04 21:23:00,
2013-05-04 17:28:00,45.9,24.0,29.91,SSW,203,0.9,1.6,42,0.01,,,0.06,WUHU216HW,2013-05-04 21:28:00,
2013-05-04 17:33:00,45.9,24.0,29.90,West,270,0.2,1.8,42,0.01,,,0.06,WUHU216HW,2013-05-04 21:33:00,
2013-05-04 17:38:00,45.9,24.0,29.89,SSW,203,0.9,3.4,42,0.01,,,0.06,WUHU216HW,2013-05-04 21:38:00,
2013-05-04 17:43:00,45.9,24.0,29.89,SE,135,2.5,3.4,42,0.00,,,0.06,WUHU216HW,2013-05-04 21:43:00,
2013-05-04 17:48:00,46.1,24.1,29.89,SE,135,1.3,2.5,42,0.00,,,0.06,WUHU216HW,2013-05-04 21:48:00,
2013-05-04 17:53:00,46.1,24.1,29.88,SE,135,0.7,1.8,42,0.00,,,0.06,WUHU216HW,2013-05-04 21:53:00,
2013-05-04 17:58:00,46.1,24.1,29.89,South,180,0.4,1.8,42,0.00,,,0.06,WUHU216HW,2013-05-04 21:58:00,
2013-05-04 18:03:00,46.1,24.1,29.89,SSW,203,0.7,2.7,42,0.00,,,0.06,WUHU216HW,2013-05-04 22:03:00,
2013-05-04 18:08:00,46.1,24.1,29.89,SSW,203,0.0,2.7,42,0.00,,,0.06,WUHU216HW,2013-05-04 22:08:00,
2013-05-04 18:13:00,46.3,24.3,29.88,SW,225,0.7,1.3,42,0.00,,,0.06,WUHU216HW,2013-05-04 22:13:00,
2013-05-04 18:18:00,46.3,24.3,29.89,ESE,113,1.1,1.1,42,0.00,,,0.06,WUHU216HW,2013-05-04 22:18:00,
2013-05-04 18:23:00,46.3,24.3,29.89,SW,225,0.4,1.1,42,0.00,,,0.06,WUHU216HW,2013-05-04 22:23:00,
2013-05-04 18:28:00,46.3,24.3,29.88,ESE,113,0.0,1.3,42,0.00,,,0.06,WUHU216HW,2013-05-04 22:28:00,
2013-05-04 18:33:00,46.4,24.5,29.86,WSW,248,0.4,2.2,42,0.00,,,0.06,WUHU216HW,2013-05-04 22:33:00,
2013-05-04 18:38:00,46.4,24.5,29.89,SSW,203,0.2,2.2,42,0.00,,,0.06,WUHU216HW,2013-05-04 22:38:00,
2013-05-04 18:43:00,46.4,24.5,29.89,SE,135,1.6,2.2,42,0.00,,,0.06,WUHU216HW,2013-05-04 22:43:00,
2013-05-04 18:48:00,46.4,24.5,29.87,WSW,248,1.1,2.2,42,0.00,,,0.06,WUHU216HW,2013-05-04 22:48:00,
2013-05-04 18:53:00,46.4,24.5,29.89,WSW,248,0.7,2.0,42,0.00,,,0.06,WUHU216HW,2013-05-04 22:53:00,
2013-05-04 18:58:00,46.4,24.5,29.88,WNW,293,0.7,2.5,42,0.00,,,0.06,WUHU216HW,2013-05-04 22:58:00,
2013-05-04 19:03:00,46.4,24.5,29.88,SW,225,0.9,2.5,42,0.00,,,0.06,WUHU216HW,2013-05-04 23:03:00,
2013-05-04 19:08:00,46.4,24.5,29.89,West,270,1.1,1.8,42,0.00,,,0.06,WUHU216HW,2013-05-04 23:08:00,
2013-05-04 19:13:00,46.4,24.5,29.89,SSW,203,0.4,1.8,42,0.00,,,0.06,WUHU216HW,2013-05-04 23:13:00,
2013-05-04 19:18:00,46.3,24.3,29.89,SE,135,0.2,1.8,42,0.00,,,0.06,WUHU216HW,2013-05-04 23:18:00,
2013-05-04 19:23:00,46.3,24.3,29.89,SE,135,0.4,1.1,42,0.00,,,0.06,WUHU216HW,2013-05-04 23:23:00,
2013-05-04 19:28:00,46.3,24.3,29.90,SSW,203,0.7,0.9,42,0.02,,,0.07,WUHU216HW,2013-05-04 23:28:00,
2013-05-04 19:33:00,46.3,24.3,29.89,SSW,203,0.7,2.0,42,0.02,,,0.08,WUHU216HW,2013-05-04 23:33:00,
2013-05-04 19:38:00,46.1,24.1,29.86,WSW,248,0.9,2.0,42,0.02,,,0.08,WUHU216HW,2013-05-04 23:38:00,
2013-05-04 19:43:00,46.1,24.1,29.87,NW,315,0.9,1.8,42,0.02,,,0.08,WUHU216HW,2013-05-04 23:43:00,
2013-05-04 19:48:00,46.1,24.1,29.88,SSW,203,0.9,2.0,42,0.02,,,0.08,WUHU216HW,2013-05-04 23:48:00,
2013-05-04 19:53:00,46.1,24.1,29.89,SSE,158,0.9,2.0,42,0.04,,,0.10,WUHU216HW,2013-05-04 23:53:00,
2013-05-04 19:58:00,45.9,24.0,29.90,SE,135,0.7,1.6,42,0.04,,,0.10,WUHU216HW,2013-05-04 23:58:00,
2013-05-04 20:03:00,45.9,24.0,29.91,SE,135,0.2,1.6,42,0.04,,,0.10,WUHU216HW,2013-05-05 00:03:00,
2013-05-04 20:08:00,45.9,24.0,29.91,West,270,0.0,0.9,42,0.04,,,0.10,WUHU216HW,2013-05-05 00:08:00,
2013-05-04 20:13:00,45.7,23.9,29.91,SW,225,0.2,0.9,42,0.04,,,0.10,WUHU216HW,2013-05-05 00:13:00,
2013-05-04 20:18:00,45.7,23.9,29.89,SW,225,0.7,0.9,42,0.05,,,0.11,WUHU216HW,2013-05-05 00:18:00,
2013-05-04 20:23:00,45.7,23.9,29.88,West,270,1.1,2.2,42,0.06,,,0.12,WUHU216HW,2013-05-05 00:23:00,
2013-05-04 20:28:00,45.5,23.7,29.88,South,180,0.4,2.2,42,0.04,,,0.12,WUHU216HW,2013-05-05 00:28:00,
2013-05-04 20:33:00,45.5,23.7,29.91,SE,135,1.6,1.8,42,0.04,,,0.12,WUHU216HW,2013-05-05 00:33:00,
2013-05-04 20:38:00,45.5,23.7,29.93,WSW,248,0.7,1.8,42,0.04,,,0.12,WUHU216HW,2013-05-05 00:38:00,
2013-05-04 20:43:00,45.5,23.7,29.93,SE,135,2.5,2.5,42,0.04,,,0.12,WUHU216HW,2013-05-05 00:43:00,
2013-05-04 20:48:00,45.5,23.7,29.94,SE,135,0.0,2.5,42,0.04,,,0.14,WUHU216HW,2013-05-05 00:48:00,
2013-05-04 20:53:00,45.5,23.7,29.92,SSW,203,1.1,2.7,42,0.04,,,0.14,WUHU216HW,2013-05-05 00:53:00,
2013-05-04 20:58:00,45.5,23.7,29.91,WNW,293,0.7,2.7,42,0.04,,,0.14,WUHU216HW,2013-05-05 00:58:00,
2013-05-04 21:03:00,45.5,23.7,29.92,SW,225,0.4,2.0,42,0.04,,,0.14,WUHU216HW,2013-05-05 01:03:00,
2013-05-04 21:08:00,45.4,23.5,29.93,SSE,158,0.2,1.1,42,0.04,,,0.14,WUHU216HW,2013-05-05 01:08:00,
2013-05-04 21:13:00,45.5,23.7,29.92,SW,225,0.9,0.9,42,0.04,,,0.14,WUHU216HW,2013-05-05 01:13:00,
2013-05-04 21:18:00,45.5,23.7,29.92,SSW,203,0.2,0.9,42,0.02,,,0.14,WUHU216HW,2013-05-05 01:18:00,
2013-05-04 21:23:00,45.5,23.7,29.91,SSW,203,0.9,1.6,42,0.02,,,0.14,WUHU216HW,2013-05-05 01:23:00,
2013-05-04 21:28:00,45.5,23.7,29.91,SW,225,0.4,1.6,42,0.02,,,0.14,WUHU216HW,2013-05-05 01:28:00,
2013-05-04 21:33:00,45.5,23.7,29.91,West,270,1.6,2.0,42,0.02,,,0.14,WUHU216HW,2013-05-05 01:33:00,
2013-05-04 21:38:00,45.5,23.7,29.91,SSW,203,0.9,2.0,42,0.02,,,0.14,WUHU216HW,2013-05-05 01:38:00,
2013-05-04 21:43:00,45.5,23.7,29.90,SSW,203,0.4,1.3,42,0.01,,,0.14,WUHU216HW,2013-05-05 01:43:00,
2013-05-04 21:48:00,45.5,23.7,29.90,SSW,203,0.4,1.3,42,0.00,,,0.14,WUHU216HW,2013-05-05 01:48:00,
2013-05-04 21:53:00,45.5,23.7,29.90,SW,225,0.7,2.0,42,0.00,,,0.14,WUHU216HW,2013-05-05 01:53:00,
2013-05-04 21:58:00,45.5,23.7,29.90,ESE,113,2.5,2.5,42,0.00,,,0.14,WUHU216HW,2013-05-05 01:58:00,
2013-05-04 22:03:00,45.5,23.7,29.91,West,270,1.3,2.5,42,0.00,,,0.14,WUHU216HW,2013-05-05 02:03:00,
2013-05-04 22:08:00,45.5,23.7,29.90,NNW,338,0.7,2.5,42,0.00,,,0.14,WUHU216HW,2013-05-05 02:08:00,
2013-05-04 22:13:00,45.7,23.9,29.91,WSW,248,0.4,2.5,42,0.00,,,0.14,WUHU216HW,2013-05-05 02:13:00,
2013-05-04 22:18:00,45.7,23.9,29.92,WSW,248,1.8,3.4,42,0.00,,,0.14,WUHU216HW,2013-05-05 02:18:00,
2013-05-04 22:23:00,45.7,23.9,29.91,West,270,0.2,3.4,42,0.00,,,0.14,WUHU216HW,2013-05-05 02:23:00,
2013-05-04 22:28:00,45.7,23.9,29.92,SSW,203,0.7,1.6,42,0.00,,,0.14,WUHU216HW,2013-05-05 02:28:00,
2013-05-04 22:33:00,45.5,23.7,29.91,SW,225,0.7,1.1,42,0.00,,,0.14,WUHU216HW,2013-05-05 02:33:00,
2013-05-04 22:38:00,45.7,23.9,29.92,SSW,203,0.7,1.1,42,0.00,,,0.14,WUHU216HW,2013-05-05 02:38:00,
2013-05-04 22:43:00,45.5,23.7,29.91,SSW,203,0.9,1.8,42,0.00,,,0.14,WUHU216HW,2013-05-05 02:43:00,
2013-05-04 22:49:00,45.5,23.7,29.91,WSW,248,0.4,1.8,42,0.00,,,0.14,WUHU216HW,2013-05-05 02:49:00,
2013-05-04 22:54:00,45.5,23.7,29.91,SW,225,0.7,1.1,42,0.00,,,0.14,WUHU216HW,2013-05-05 02:54:00,
2013-05-04 22:59:00,45.5,23.7,29.90,SW,225,0.7,1.8,42,0.00,,,0.14,WUHU216HW,2013-05-05 02:59:00,
2013-05-04 23:04:00,45.5,23.7,29.90,WSW,248,0.9,1.8,42,0.00,,,0.14,WUHU216HW,2013-05-05 03:04:00,
2013-05-04 23:09:00,45.5,23.7,29.89,SW,225,1.6,1.6,42,0.00,,,0.14,WUHU216HW,2013-05-05 03:09:00,
2013-05-04 23:14:00,45.5,23.7,29.89,SW,225,0.9,1.8,42,0.00,,,0.14,WUHU216HW,2013-05-05 03:14:00,
2013-05-04 23:19:00,45.5,23.7,29.89,SSE,158,0.2,1.8,42,0.00,,,0.14,WUHU216HW,2013-05-05 03:19:00,
2013-05-04 23:24:00,45.5,23.7,29.89,SSW,203,1.1,1.8,42,0.00,,,0.14,WUHU216HW,2013-05-05 03:24:00,
2013-05-04 23:29:00,45.5,23.7,29.90,WSW,248,1.8,1.8,42,0.00,,,0.14,WUHU216HW,2013-05-05 03:29:00,
2013-05-04 23:34:00,45.5,23.7,29.89,South,180,0.9,2.2,42,0.00,,,0.14,WUHU216HW,2013-05-05 03:34:00,
2013-05-04 23:39:00,45.5,23.7,29.90,SSW,203,1.1,2.2,42,0.00,,,0.14,WUHU216HW,2013-05-05 03:39:00,
2013-05-04 23:44:00,45.5,23.7,29.90,WSW,248,0.4,1.1,42,0.00,,,0.14,WUHU216HW,2013-05-05 03:44:00,
2013-05-04 23:49:00,45.5,23.7,29.89,SSW,203,0.4,0.9,42,0.00,,,0.14,WUHU216HW,2013-05-05 03:49:00,
2013-05-04 23:54:00,45.5,23.7,29.89,West,270,0.9,1.1,42,0.00,,,0.14,WUHU216HW,2013-05-05 03:54:00,
2013-05-04 23:59:00,45.5,23.7,29.90,South,180,1.6,1.6,42,0.00,,,0.14,WUHU216HW,2013-05-05 03:59:00,